Location: Castro Valley
(37.6940°N, 122.0850°W)
Time: 15:04:51
(UTC-08:00)

Amateur Radio Satellites - All Passes

Search period start: 20 November 2017 14:34
Search period end: 21 November 2017 14:34
Location: Castro Valley, 37.6940°N, 122.0850°W

Satellite Date Start Highest point End Downlink Frequencies (MHz)
Time Altitude Azimuth
BEESAT 20 Nov 14:50:59 14:54:57 26° 96° (E) 14:58:54 436.000
ITUPSAT 1 20 Nov 14:59:58 15:04:12 31° 97° (E) 15:08:25 437.325
AO-7 20 Nov 15:00:22 15:08:38 75° 254° (WSW) 15:16:58 .
JUGNU 20 Nov 15:06:07 15:07:16 11° 171° (S) 15:08:24 437.505
DX 1 20 Nov 15:06:38 15:09:27 17° 294° (WNW) 15:12:15 434.975-435.025
DOVE 4 20 Nov 15:08:29 15:11:20 15° 63° (ENE) 15:14:14 437.250
FALCONSAT 3 20 Nov 15:09:07 15:11:39 18° 206° (SSW) 15:14:11 435.103
AO-85 20 Nov 15:11:47 15:12:51 11° 253° (WSW) 15:13:55 145.980
MOZHAYETS 4 20 Nov 15:19:02 15:23:36 73° 102° (ESE) 15:28:09
CUBESAT XI-V 20 Nov 15:29:27 15:32:57 21° 94° (E) 15:36:26 437.345
ITAMSAT 1 20 Nov 15:49:58 15:54:40 34° 262° (W) 15:59:25 435.822/435.867
NO-84 20 Nov 15:56:09 15:59:34 34° 323° (NW) 16:03:15 435.350 FM
YUBILEINY 20 Nov 16:17:53 16:26:25 49° 77° (ENE) 16:34:52 435.215
XW-2C 20 Nov 16:20:31 16:21:28 11° 66° (ENE) 16:22:25 145.795 - 145.815
LilacSat-2 20 Nov 16:21:03 16:22:35 12° 67° (ENE) 16:24:07 437.200
BEESAT 20 Nov 16:28:34 16:32:38 29° 291° (WNW) 16:36:43 436.000
XW-2F 20 Nov 16:30:49 16:32:43 14° 67° (ENE) 16:34:36 145.980 - 146.000
ITUPSAT 1 20 Nov 16:38:02 16:41:50 24° 293° (WNW) 16:45:38 437.325
DOVE 4 20 Nov 16:43:27 16:48:20 63° 259° (W) 16:53:31 437.250
JUGNU 20 Nov 16:52:51 16:55:22 13° 181° (S) 16:57:52 437.505
KAITUO 1B 20 Nov 16:58:40 17:01:35 23° 71° (ENE) 17:04:31 145.475/437.950
MOZHAYETS 4 20 Nov 16:59:12 17:00:06 11° 297° (WNW) 17:01:00
AO-7 20 Nov 16:59:53 17:02:35 12° 271° (W) 17:05:18 .
CUBESAT XI-V 20 Nov 17:06:06 17:10:21 36° 289° (WNW) 17:14:38 437.345
XW-2D 20 Nov 17:11:12 17:14:48 50° 75° (ENE) 17:18:26 145.860 - 145.880
KKS-1 20 Nov 17:15:41 17:20:07 63° 102° (ESE) 17:24:31 437.445
CUTE-I 20 Nov 17:16:47 17:21:58 52° 72° (ENE) 17:27:11 437.470
XW-2B 20 Nov 17:25:53 17:29:35 77° 77° (ENE) 17:33:20 145.730 - 145.750
HO-68 20 Nov 17:36:21 17:42:58 41° 66° (ENE) 17:49:36 435.675
RS-15 20 Nov 17:39:08 17:50:06 41° 106° (ESE) 18:01:04 29.354- 29.394
STARS 20 Nov 17:41:46 17:46:00 46° 100° (E) 17:50:11 437.465
CUTE 1.7 + AOD 2 20 Nov 17:42:42 17:46:09 26° 70° (ENE) 17:49:38 437.475
NUDT-PHONESAT 20 Nov 17:43:32 17:47:10 89° 77° (ENE) 17:50:50 437.300
XW-2C 20 Nov 17:51:37 17:55:11 45° 261° (W) 17:58:48 145.795 - 145.815
LilacSat-2 20 Nov 17:52:55 17:56:27 40° 261° (W) 18:00:01 437.200
UWE-3 20 Nov 17:56:27 17:58:22 13° 66° (ENE) 18:00:17 435.000/436.395/437.385
XW-2F 20 Nov 18:03:05 18:06:29 34° 262° (W) 18:09:54 145.980 - 146.000
SEEDS 20 Nov 18:13:57 18:17:43 35° 72° (ENE) 18:21:32 437.485
YUBILEINY 20 Nov 18:15:13 18:22:50 34° 275° (W) 18:30:27 435.215
AAUSAT CUBESAT 2 20 Nov 18:23:27 18:26:21 19° 68° (ENE) 18:29:16 437.432
CUBEBUG 2 20 Nov 18:31:48 18:36:20 57° 75° (ENE) 18:40:45 437.445
KAITUO 1B 20 Nov 18:32:48 18:35:28 19° 265° (W) 18:38:11 145.475/437.950
SRMSAT 20 Nov 18:36:22 18:38:39 12° 174° (S) 18:40:56 437.500
AO-73 20 Nov 18:38:35 18:41:17 16° 67° (ENE) 18:43:57 145.935
KKS-1 20 Nov 18:54:28 18:56:05 12° 297° (WNW) 18:57:43 437.445
Oscar 11 20 Nov 18:55:32 18:58:18 17° 67° (ENE) 19:01:04 .
CUTE-I 20 Nov 18:58:43 19:02:16 18° 267° (W) 19:05:51 437.470
XW-2A 20 Nov 19:14:16 19:17:35 82° 259° (WSW) 19:20:55 145.665 - 145.685
CUTE 1.7 + AOD 2 20 Nov 19:18:34 19:21:54 23° 265° (W) 19:25:16 437.475
STARS 20 Nov 19:19:24 19:21:55 15° 295° (WNW) 19:24:24 437.465
ZACube-1 20 Nov 19:21:31 19:25:48 58° 75° (ENE) 19:29:59 437.345
HO-68 20 Nov 19:24:12 19:30:40 36° 263° (W) 19:37:10 435.675
STRAND 1 20 Nov 19:24:22 19:29:26 57° 101° (E) 19:34:25 437.568
UWE-3 20 Nov 19:29:56 19:34:21 56° 260° (W) 19:38:40 435.000/436.395/437.385
RS-15 20 Nov 19:49:58 20:02:05 61° 307° (NW) 20:14:13 29.354- 29.394
SEEDS 20 Nov 19:50:49 19:53:29 17° 267° (W) 19:56:10 437.485
nSIGHT-1 20 Nov 19:57:25 20:00:06 25° 132° (SE) 20:02:47 .
AAUSAT CUBESAT 2 20 Nov 19:57:54 20:01:33 31° 263° (W) 20:05:15 437.432
FO-29 20 Nov 20:10:20 20:17:48 45° 97° (E) 20:24:45 435.910
CUBEBUG 2 20 Nov 20:11:23 20:13:12 12° 269° (W) 20:15:01 437.445
Max Valier Satellite 20 Nov 20:11:58 20:13:55 14° 68° (ENE) 20:15:51 145.860
AO-73 20 Nov 20:13:08 20:17:11 39° 262° (W) 20:21:11 145.935
SRMSAT 20 Nov 20:24:24 20:26:56 13° 184° (S) 20:29:29 437.500
Oscar 11 20 Nov 20:30:07 20:34:06 38° 262° (W) 20:38:07 .
DELFI C3 20 Nov 20:32:40 20:36:21 40° 73° (ENE) 20:40:06 145.870
ISS 20 Nov 20:39:18 20:42:31 58° 136° (SE) 20:45:45 437.550
SO-50 20 Nov 20:45:31 20:48:35 18° 110° (ESE) 20:51:40 436.795
NO-84 20 Nov 20:53:41 20:56:10 15° 26° (NNE) 20:58:39 435.350 FM
ZACube-1 20 Nov 21:01:28 21:02:22 11° 269° (W) 21:03:15 437.345
UNISAT 6 20 Nov 21:04:16 21:07:16 18° 94° (E) 21:10:14 437.425
STRAND 1 20 Nov 21:05:00 21:08:05 16° 297° (WNW) 21:11:10 437.568
TIGRISAT 20 Nov 21:08:43 21:11:44 19° 94° (E) 21:14:44 435.000
nSIGHT-1 20 Nov 21:33:22 21:36:15 30° 328° (NNW) 21:39:08 .
ESTCUBE 1 20 Nov 21:40:10 21:42:26 14° 65° (ENE) 21:44:42 437.505/2401.250
EO-88 20 Nov 21:43:07 21:46:38 49° 261° (W) 21:50:09 145.990 - 145.960
Max Valier Satellite 20 Nov 21:44:07 21:47:25 32° 262° (W) 21:50:44 145.860
FO-29 20 Nov 21:55:32 22:02:32 37° 295° (WNW) 22:09:11 435.910
RS-15 20 Nov 22:08:54 22:17:54 22° 336° (NNW) 22:26:48 29.354- 29.394
LO-87 20 Nov 22:08:57 22:12:13 33° 73° (ENE) 22:15:30 145.935 - 145.965
DELFI C3 20 Nov 22:09:23 22:11:16 13° 268° (W) 22:13:08 145.870
PRISM 20 Nov 22:10:32 22:14:21 34° 98° (E) 22:18:07 437.425
ISS 20 Nov 22:16:51 22:19:14 18° 334° (NNW) 22:21:37 437.550
SO-50 20 Nov 22:24:28 22:28:42 41° 306° (NW) 22:32:58 436.795
NO-84 20 Nov 22:29:57 22:34:13 68° 44° (NE) 22:38:25 435.350 FM
UNISAT 6 20 Nov 22:40:13 22:44:02 32° 289° (WNW) 22:47:48 437.425
AIST 2D 20 Nov 22:44:20 22:47:14 24° 96° (E) 22:50:08 435.315
TIGRISAT 20 Nov 22:44:42 22:48:28 31° 289° (WNW) 22:52:13 435.000
O/OREOS (USA 219) 20 Nov 22:45:05 22:49:03 29° 62° (ENE) 22:52:58 437.305
PCSat 20 Nov 22:54:29 22:57:19 14° 103° (ESE) 23:00:09 145.827
SPROUT 20 Nov 23:00:57 23:04:23 24° 69° (ENE) 23:07:49 437.525
QB50P2 20 Nov 23:11:07 23:14:08 19° 94° (E) 23:17:07 145.880/145.840
ESTCUBE 1 20 Nov 23:14:23 23:18:45 52° 260° (W) 23:23:08 437.505/2401.250
VELOX 1 20 Nov 23:36:24 23:40:30 38° 72° (ENE) 23:44:38 145.980
LO-87 20 Nov 23:44:05 23:45:43 13° 267° (W) 23:47:20 145.935 - 145.965
PRISM 20 Nov 23:46:31 23:49:19 18° 293° (WNW) 23:52:06 437.425
DUCHIFAT 1 21 Nov 00:00:25 00:04:28 49° 100° (E) 00:08:29 145.980
50 SAT 21 Nov 00:03:34 00:05:10 13° 68° (ENE) 00:06:45 437.505
EO-79 21 Nov 00:07:16 00:11:28 81° 100° (E) 00:15:39 145.935-145.965
NO-84 21 Nov 00:08:47 00:11:06 14° 239° (WSW) 00:13:24 435.350 FM
NANOSAT C BR1 21 Nov 00:10:43 00:14:54 78° 102° (ESE) 00:19:04 145.865
AIST 2D 21 Nov 00:17:51 00:20:13 17° 290° (WNW) 00:22:35 435.315
POLYITAN 1 21 Nov 00:22:33 00:26:43 66° 284° (WNW) 00:30:50 437.675
DX 1 21 Nov 00:23:12 00:26:55 28° 69° (ENE) 00:30:39 434.975-435.025
O/OREOS (USA 219) 21 Nov 00:24:39 00:28:17 24° 258° (WSW) 00:31:54 437.305
RS-15 21 Nov 00:29:17 00:36:59 18° 13° (NNE) 00:44:28 29.354- 29.394
Oscar 19 21 Nov 00:34:19 00:37:27 16° 92° (E) 00:40:35 437.125/150
PCSat 21 Nov 00:34:41 00:40:04 68° 300° (WNW) 00:45:29 145.827
SPROUT 21 Nov 00:36:31 00:40:07 26° 264° (W) 00:43:45 437.525
QB50P2 21 Nov 00:46:14 00:49:56 31° 289° (WNW) 00:53:37 145.880/145.840
BUGSAT 1 21 Nov 00:54:07 00:58:00 46° 99° (E) 01:01:51 437.445
Gurwin Techsat 1B 21 Nov 00:57:01 01:00:48 20° 93° (E) 01:04:34 435.225
UKube-1 21 Nov 01:05:16 01:09:27 51° 73° (ENE) 01:13:39 .
VELOX 1 21 Nov 01:14:08 01:17:03 17° 266° (W) 01:20:00 145.980
50 SAT 21 Nov 01:34:14 01:36:59 26° 263° (W) 01:39:46 437.505
DUCHIFAT 1 21 Nov 01:37:49 01:39:39 13° 295° (WNW) 01:41:29 145.980
BEESAT 3 21 Nov 01:41:27 01:44:10 18° 110° (ESE) 01:46:53 437.485
BEESAT 21 Nov 01:55:36 01:59:29 25° 68° (ENE) 02:03:23 436.000
DX 1 21 Nov 01:59:34 02:03:02 23° 264° (W) 02:06:32 434.975-435.025
ITUPSAT 1 21 Nov 02:04:49 02:09:00 31° 69° (ENE) 02:13:11 437.325
M-CUBED/EXP-1 PRIME 21 Nov 02:08:54 02:12:28 22° 100° (E) 02:16:03 437.505
Oscar 19 21 Nov 02:12:02 02:17:03 54° 287° (WNW) 02:22:05 437.125/150
MOZHAYETS 4 21 Nov 02:18:44 02:23:11 55° 74° (ENE) 02:27:38
PCSat 21 Nov 02:23:04 02:24:29 11° 319° (NW) 02:25:55 145.827
nSIGHT-1 21 Nov 02:25:44 02:28:09 19° 27° (NNE) 02:30:34 .
BUGSAT 1 21 Nov 02:31:11 02:32:55 13° 295° (WNW) 02:34:38 437.445
CUBESAT XI-V 21 Nov 02:31:33 02:34:27 17° 66° (ENE) 02:37:21 437.345
Gurwin Techsat 1B 21 Nov 02:35:51 02:40:57 47° 288° (WNW) 02:46:00 435.225
RS-15 21 Nov 02:42:47 02:53:58 43° 45° (NE) 03:04:33 29.354- 29.394
UKube-1 21 Nov 02:43:58 02:45:43 12° 268° (W) 02:47:29 .
BEESAT 2 21 Nov 02:51:33 02:55:02 29° 113° (ESE) 02:58:34 435.950
AO-7 21 Nov 03:04:15 03:12:05 42° 100° (E) 03:19:51 .
ISS 21 Nov 03:08:50 03:11:52 35° 33° (NNE) 03:14:54 437.550
BEESAT 3 21 Nov 03:17:45 03:21:24 35° 306° (NW) 03:25:07 437.485
BEESAT 21 Nov 03:32:54 03:37:06 31° 263° (W) 03:41:19 436.000
AO-85 21 Nov 03:41:37 03:45:11 37° 115° (ESE) 03:48:52 145.980
M-CUBED/EXP-1 PRIME 21 Nov 03:42:40 03:46:50 36° 293° (WNW) 03:51:04 437.505
ITUPSAT 1 21 Nov 03:42:52 03:46:47 25° 264° (W) 03:50:43 437.325
MOZHAYETS 4 21 Nov 03:58:41 04:00:38 13° 269° (W) 04:02:36
nSIGHT-1 21 Nov 04:01:27 04:04:33 48° 225° (SW) 04:07:37 .
ITAMSAT 1 21 Nov 04:04:02 04:09:16 84° 285° (WNW) 04:14:26 435.822/435.867
CUBESAT XI-V 21 Nov 04:07:02 04:11:25 44° 262° (W) 04:15:50 437.345
KKS-1 21 Nov 04:11:34 04:15:50 45° 72° (ENE) 04:20:07 437.445
BEESAT 2 21 Nov 04:29:32 04:32:45 23° 310° (NW) 04:36:00 435.950
STARS 21 Nov 04:36:21 04:40:17 33° 71° (ENE) 04:44:16 437.465
DOVE 4 21 Nov 04:44:28 04:49:24 44° 98° (E) 04:54:04 437.250
ISS 21 Nov 04:45:40 04:48:12 21° 229° (SW) 04:50:43 437.550
RS-15 21 Nov 04:55:27 05:06:46 58° 249° (WSW) 05:17:31 29.354- 29.394
AO-7 21 Nov 04:57:05 05:04:44 42° 297° (WNW) 05:12:23 .
YUBILEINY 21 Nov 05:16:01 05:24:31 60° 91° (E) 05:33:06 435.215
SO-50 21 Nov 05:18:09 05:20:30 14° 43° (NE) 05:22:52 436.795
AO-85 21 Nov 05:23:00 05:25:43 18° 313° (NW) 05:28:30 145.980
XW-2C 21 Nov 05:26:16 05:29:04 19° 95° (E) 05:31:51 145.795 - 145.815
LilacSat-2 21 Nov 05:28:00 05:31:02 22° 95° (E) 05:34:04 437.200
CUTE-I 21 Nov 05:36:17 05:40:35 24° 95° (E) 05:44:51 437.470
XW-2F 21 Nov 05:36:43 05:39:51 24° 96° (E) 05:42:58 145.980 - 146.000
KKS-1 21 Nov 05:50:00 05:52:34 15° 267° (W) 05:55:09 437.445
KAITUO 1B 21 Nov 06:04:16 06:07:51 41° 99° (E) 06:11:26 145.475/437.950
STARS 21 Nov 06:13:21 06:16:39 20° 265° (W) 06:19:57 437.465
XW-2D 21 Nov 06:19:02 06:22:51 81° 285° (WNW) 06:26:40 145.860 - 145.880
FO-29 21 Nov 06:22:20 06:26:23 17° 56° (ENE) 06:30:39 435.910
DOVE 4 21 Nov 06:22:55 06:26:40 20° 294° (WNW) 06:30:16 437.250
CUBEBUG 2 21 Nov 06:26:26 06:28:07 12° 91° (E) 06:29:48 437.445
XW-2B 21 Nov 06:33:57 06:37:40 53° 285° (WNW) 06:41:23 145.730 - 145.750
STRAND 1 21 Nov 06:38:09 06:43:16 68° 74° (ENE) 06:48:24 437.568
NUDT-PHONESAT 21 Nov 06:48:53 06:52:28 49° 285° (WNW) 06:56:04 437.300
HO-68 21 Nov 06:53:02 07:00:01 51° 101° (E) 07:06:56 435.675
SO-50 21 Nov 06:56:52 07:01:32 82° 241° (WSW) 07:06:15 436.795
XW-2C 21 Nov 07:00:02 07:03:10 25° 289° (WNW) 07:06:18 145.795 - 145.815
LilacSat-2 21 Nov 07:02:11 07:05:11 22° 290° (WNW) 07:08:12 437.200
CUTE 1.7 + AOD 2 21 Nov 07:03:57 07:08:12 67° 100° (E) 07:12:28 437.475
XW-2F 21 Nov 07:10:58 07:13:47 20° 290° (WNW) 07:16:36 145.980 - 146.000
ZACube-1 21 Nov 07:13:28 07:15:03 12° 92° (E) 07:16:37 437.345
YUBILEINY 21 Nov 07:14:36 07:21:48 28° 290° (WNW) 07:29:05 435.215
CUTE-I 21 Nov 07:15:45 07:20:41 39° 290° (WNW) 07:25:37 437.470
UWE-3 21 Nov 07:21:30 07:25:10 30° 97° (E) 07:28:49 435.000/436.395/437.385
SEEDS 21 Nov 07:34:21 07:38:36 89° 296° (WNW) 07:42:51 437.485
KAITUO 1B 21 Nov 07:39:55 07:41:25 12° 293° (WNW) 07:42:55 145.475/437.950
AAUSAT CUBESAT 2 21 Nov 07:41:05 07:45:05 43° 99° (E) 07:49:04 437.432
PCSat 21 Nov 07:44:19 07:45:17 10° 41° (NE) 07:46:16 145.827
CUBEBUG 2 21 Nov 08:01:01 08:04:59 45° 286° (WNW) 08:08:55 437.445
UNISAT 6 21 Nov 08:01:49 08:04:22 15° 66° (ENE) 08:06:56 437.425
AO-73 21 Nov 08:02:26 08:06:21 40° 98° (E) 08:10:18 145.935
FO-29 21 Nov 08:03:42 08:10:12 89° 257° (WSW) 08:17:37 435.910
TIGRISAT 21 Nov 08:06:05 08:08:41 15° 66° (ENE) 08:11:16 435.000
XW-2A 21 Nov 08:09:51 08:13:10 58° 284° (WNW) 08:16:28 145.665 - 145.685
Oscar 11 21 Nov 08:18:43 08:22:50 42° 99° (E) 08:26:56 .
STRAND 1 21 Nov 08:20:40 08:22:52 13° 269° (W) 08:25:05 437.568
HO-68 21 Nov 08:41:23 08:47:22 30° 297° (WNW) 08:53:20 435.675
CUTE 1.7 + AOD 2 21 Nov 08:43:03 08:43:26 10° 296° (WNW) 08:43:50 437.475
ZACube-1 21 Nov 08:47:34 08:51:34 47° 286° (WNW) 08:55:34 437.345
PRISM 21 Nov 08:58:21 09:01:19 20° 68° (ENE) 09:04:18 437.425
UWE-3 21 Nov 08:58:28 09:01:24 19° 292° (WNW) 09:04:19 435.000/436.395/437.385
EO-88 21 Nov 09:14:21 09:16:28 15° 93° (E) 09:18:36 145.990 - 145.960
Max Valier Satellite 21 Nov 09:15:37 09:18:34 23° 96° (E) 09:21:31 145.860
AAUSAT CUBESAT 2 21 Nov 09:17:51 09:20:07 14° 294° (WNW) 09:22:24 437.432
PCSat 21 Nov 09:24:21 09:29:46 64° 61° (ENE) 09:35:07 145.827
UNISAT 6 21 Nov 09:36:13 09:40:40 49° 260° (W) 09:45:03 437.425
FALCONSAT 3 21 Nov 09:37:59 09:41:15 30° 161° (SSE) 09:44:32 435.103
AO-73 21 Nov 09:39:55 09:42:14 15° 293° (WNW) 09:44:33 145.935
TIGRISAT 21 Nov 09:40:32 09:44:58 49° 260° (W) 09:49:20 435.000
DELFI C3 21 Nov 09:45:22 09:49:23 88° 102° (ESE) 09:53:22 145.870
FO-29 21 Nov 09:53:20 09:56:21 13° 275° (W) 09:59:31 435.910
Oscar 11 21 Nov 09:56:01 09:58:36 16° 294° (WNW) 10:01:11 .
QB50P2 21 Nov 10:03:11 10:04:54 12° 65° (ENE) 10:06:35 145.880/145.840
PRISM 21 Nov 10:32:43 10:36:21 30° 263° (W) 10:40:01 437.425
EO-88 21 Nov 10:46:57 10:50:09 29° 288° (WNW) 10:53:20 145.990 - 145.960
AIST 2D 21 Nov 10:48:41 10:52:06 65° 259° (W) 10:55:33 435.315
Max Valier Satellite 21 Nov 10:49:34 10:52:14 19° 290° (WNW) 10:54:55 145.860
DUCHIFAT 1 21 Nov 10:50:16 10:53:53 28° 71° (ENE) 10:57:30 145.980
EO-79 21 Nov 10:57:23 11:01:26 45° 73° (ENE) 11:05:29 145.935-145.965
NANOSAT C BR1 21 Nov 11:00:32 11:04:31 43° 73° (ENE) 11:08:32 145.865
ESTCUBE 1 21 Nov 11:08:34 11:12:46 36° 98° (E) 11:16:55 437.505/2401.250
PCSat 21 Nov 11:09:30 11:12:32 15° 256° (WSW) 11:15:35 145.827
LO-87 21 Nov 11:10:17 11:13:46 53° 100° (E) 11:17:12 145.935 - 145.965
BEESAT 2 21 Nov 11:11:47 11:13:31 12° 44° (NE) 11:15:14 435.950
POLYITAN 1 21 Nov 11:12:35 11:16:49 69° 75° (ENE) 11:21:02 437.675
FALCONSAT 3 21 Nov 11:16:27 11:20:05 59° 176° (S) 11:23:44 435.103
BEESAT 3 21 Nov 11:35:34 11:39:29 69° 59° (ENE) 11:43:20 437.485
QB50P2 21 Nov 11:36:00 11:40:10 54° 260° (W) 11:44:21 145.880/145.840
BUGSAT 1 21 Nov 11:41:55 11:45:24 26° 70° (ENE) 11:48:52 437.445
Oscar 19 21 Nov 11:49:20 11:53:02 21° 65° (ENE) 11:56:44 437.125/150
AO-85 21 Nov 12:13:32 12:17:27 25° 51° (NE) 12:21:34 145.980
Gurwin Techsat 1B 21 Nov 12:16:06 12:20:29 27° 67° (ENE) 12:24:54 435.225
SPROUT 21 Nov 12:22:59 12:27:10 57° 100° (E) 12:31:19 437.525
DUCHIFAT 1 21 Nov 12:26:17 12:29:30 21° 265° (W) 12:32:44 145.980
EO-79 21 Nov 12:35:19 12:37:24 13° 268° (W) 12:39:28 145.935-145.965
NANOSAT C BR1 21 Nov 12:38:12 12:40:24 14° 267° (W) 12:42:36 145.865
ESTCUBE 1 21 Nov 12:46:00 12:49:16 20° 293° (WNW) 12:52:33 437.505/2401.250
BEESAT 2 21 Nov 12:47:40 12:51:41 67° 241° (WSW) 12:55:35 435.950
M-CUBED/EXP-1 PRIME 21 Nov 12:53:49 12:56:00 15° 61° (ENE) 12:58:17 437.505
50 SAT 21 Nov 12:53:59 12:55:36 13° 94° (E) 12:57:14 437.505
O/OREOS (USA 219) 21 Nov 12:54:56 12:59:20 47° 106° (ESE) 13:03:46 437.305
FALCONSAT 3 21 Nov 12:55:27 12:59:01 48° 191° (S) 13:02:35 435.103
VELOX 1 21 Nov 13:03:58 13:08:26 80° 283° (WNW) 13:12:52 145.980
BUGSAT 1 21 Nov 13:17:19 13:20:40 23° 264° (W) 13:24:00 437.445
Oscar 19 21 Nov 13:27:08 13:32:00 44° 261° (W) 13:36:54 437.125/150
ITAMSAT 1 21 Nov 13:43:31 13:46:21 15° 62° (ENE) 13:49:12 435.822/435.867
NO-84 21 Nov 13:44:25 13:46:44 17° 122° (ESE) 13:49:11 435.350 FM
DX 1 21 Nov 13:48:19 13:52:42 68° 102° (ESE) 13:57:02 434.975-435.025
AO-85 21 Nov 13:53:28 13:57:58 40° 245° (WSW) 14:02:43 145.980
Gurwin Techsat 1B 21 Nov 13:55:25 14:00:15 35° 262° (W) 14:05:06 435.225
SPROUT 21 Nov 14:01:04 14:02:31 12° 296° (WNW) 14:03:59 437.525
AO-7 21 Nov 14:01:06 14:08:57 50° 65° (ENE) 14:16:50 .
MOZHAYETS 4 21 Nov 14:16:54 14:19:26 15° 92° (E) 14:21:57
50 SAT 21 Nov 14:25:02 14:27:42 24° 288° (WNW) 14:30:19 437.505
M-CUBED/EXP-1 PRIME 21 Nov 14:26:57 14:30:05 31° 258° (WSW) 14:33:27 437.505
